Regional Weather Roundup
Issued by NWS

Home | Current Version | Previous Version | Graphics & Text | Print | Product List | Glossary On
Versions: 1 2 3 4 5 6 7 8 9 10 11 12 13 14 15 16 17 18 19 20 21 22 23 24 25 26 27 28 29 30 31 32 33 34 35 36 37 38 39 40 41 42 43 44 45 46 47 48 49 50
934
ASUS45 KCYS 232010
RWRWY

WYOMING REGIONAL WEATHER ROUNDUP
NATIONAL WEATHER SERVICE CHEYENNE WY
200 PM MDT SUN APR 23 2017

NOTE:  "FAIR" INDICATES FEW OR NO CLOUDS BELOW 12,000 FEET
WITH NO SIGNIFICANT WEATHER AND/OR OBSTRUCTIONS TO VISIBILITY.

WYZ001-232100-
YELLOWSTONE NATIONAL PARK

CITY           SKY/WX    TMP DP  RH WIND       PRES   REMARKS
LK YELLOWSTONE   N/A     47  23  38 VRB5      29.86F
W YELLOWSTONE  NOT AVBL

$$
WYZ002>013-054>058-071-098>099-232100-
NORTHERN WYOMING

CITY           SKY/WX    TMP DP  RH WIND       PRES   REMARKS
JACKSON        PTSUNNY   55  27  33 S13       29.83F
CODY           FAIR      62  29  28 VRB3      29.71F
GREYBULL       FAIR      67  32  27 VRB6      29.67F
WORLAND        FAIR      68  32  26 S6        29.67F
SHERIDAN       FAIR      68  35  29 SE9G22    29.67F
BUFFALO        FAIR      67  33  28 S17G26    29.71F
GILLETTE       FAIR      66  32  28 MISG      29.71F
HULETT         FAIR      66  32  28 SW3       29.74F
NEWCASTLE      FAIR      64  27  24 S7        29.75F

$$
WYZ014>020-022>026-101>103-232100-
CENTRAL WYOMING

CITY           SKY/WX    TMP DP  RH WIND       PRES   REMARKS
BIG PINEY      PTSUNNY   60  25  26 NW15G28   29.83F
PINEDALE       MOCLDY    55  25  30 W10G16    29.85F
DUBOIS         CLOUDY    46  28  49 W22G30    29.83S
LANDER         FAIR      66  30  26 E6        29.72F
RIVERTON       FAIR      64  27  24 CALM      29.74F
CASPER         FAIR      70  26  19 SW17G31   29.75F
DOUGLAS        FAIR      70  31  23 SE8       29.76F

$$
WYZ021-027>030-104>119-232100-
SOUTHERN WYOMING

CITY           SKY/WX    TMP DP  RH WIND       PRES   REMARKS
EVANSTON       FAIR      63  27  25 SW22G33   29.84F
KEMMERER         N/A     57  28  33 W20G25    29.85F
FORT BRIDGER   MOCLDY    66  24  20 SW17G31   29.86F
ROCK SPRINGS   FAIR      66  20  17 W12G20    29.82F
DIXON            N/A     66  24  20 SW18G26   29.90F
RAWLINS        FAIR      64  19  17 SW28G37   29.85F
SARATOGA       FAIR      64  21  19 SW20G32   29.89F
LARAMIE        FAIR      65  19  17 W20G25    29.87F
CHEYENNE       FAIR      64  29  26 S15G22    29.85F
TORRINGTON     FAIR      74  23  15 SW5       29.75F
PINE BLUFFS    FAIR      64  34  32 S16G22    29.84F

$$




USA.gov is the U.S. government's official web portal to all federal, state and local government web resources and services.